Regional Weather Roundup
Issued by NWS Albany, NY

Home | Current Version | Previous Version | Text Only | Print | Product List | Glossary On
Versions: 1 2 3 4 5 6 7 8 9 10 11 12 13 14 15 16 17 18 19 20 21 22 23 24 25 26 27 28 29 30 31 32 33 34 35 36 37 38 39 40 41 42 43 44 45 46 47 48 49 50
000
ASUS41 KALY 311310
RWRALY

NEW YORK STATE HOURLY WEATHER ROUNDUP
NATIONAL WEATHER SERVICE ALBANY NY
900 AM EDT FRI JUL 31 2015

NOTE: "FAIR" INDICATES FEW OR NO CLOUDS BELOW 12,000 FEET WITH NO
SIGNIFICANT WEATHER AND/OR NO OBSTRUCTIONS TO VISIBILITY.

NYZ032-033-038>043-046>054-057>066-NYZ062>081-311400-
EAST


CITY           SKY/WX    TMP DP  RH WIND       PRES   REMARKS
ALBANY         MOSUNNY   76  61  59 W12       29.85S
GLENS FALLS    SUNNY     74  61  63 W10       29.81S
POUGHKEEPSIE   SUNNY     75  62  64 VRB5      29.86S
NEWBURGH       SUNNY     73  64  73 W6        29.90S
MONTGOMERY     SUNNY     75  63  66 VRB7      29.88F
WHITE PLAINS   SUNNY     75  63  66 NW8       29.88S
ISLIP          MOSUNNY   77  66  68 NW6       29.85S
NEW YORK CITY  MOSUNNY   78  60  53 NW6       29.87S
CENTRAL PARK   SUNNY     77  59  53 VRB3      29.91S
$$

NYZ005>009-017-018-044>046-055-056-311400-
CENTRAL


CITY           SKY/WX    TMP DP  RH WIND       PRES   REMARKS
FULTON         SUNNY     72  59  63 W10       29.89R
SYRACUSE       MOSUNNY   72  62  71 W14       29.89R
ROME           SUNNY     69  61  75 W13       29.89R
ELMIRA         SUNNY     72  63  73 SW8       29.93R
BINGHAMTON     SUNNY     68  59  73 W9        29.94S
MONTICELLO     SUNNY     70  59  68 W7        29.94F
$$

NYZ026>034-041>043-311400-
NORTH


CITY           SKY/WX    TMP DP  RH WIND       PRES   REMARKS
WATERTOWN      SUNNY     71  58  63 W14       29.86R
FORT DRUM      NOT AVBL
MASSENA        PTSUNNY   71  58  63 W13       29.81R
SARANAC LAKE   PTSUNNY   65  55  70 W10G18    29.83R
PLATTSBURGH    SUNNY     72  58  61 W8        29.78R
$$

NYZ001>004-010>016-019>021-311400-
WEST


CITY           SKY/WX    TMP DP  RH WIND       PRES   REMARKS
NIAGARA FALLS  MOSUNNY   71  58  63 S8        29.90S
BUFFALO        MOSUNNY   73  59  61 SW7       29.91F
DUNKIRK        SUNNY     73  64  73 S9        29.92F
JAMESTOWN      SUNNY     66  61  82 S6        29.98F
WELLSVILLE     SUNNY     70  58  65 W7        30.01R
ROCHESTER      MOSUNNY   72  57  59 W8        29.91S
PENN YAN       SUNNY     73  56  54 W12       29.93S
$$

             KEY
       WCI = WIND CHILL INDEX
       VSB = VISIBILITY
       HX  = HEAT INDEX
$$


USA.gov is the U.S. government's official web portal to all federal, state and local government web resources and services.